Powrót do katalogu

STARLINK-3160

AktywnyŁącznośćVLEO
NORAD 49454·PAYLOAD·🇺🇸 United States

Wystrzelony Nov 13, 2021 z Cape Canaveral Space Force Station

Loading…

Następne Przeloty (najbliższe 24 godziny)

TLE

ŚwieżeSource: CelesTrak SupGP

Epoka: Sep 14, 2026, 21:44 UTC

1 49454C 21104AY  26257.90604167  .00040546  00000+0  11986-2 0  2571
2 49454  53.1594  77.5252 0001254  84.3310 343.6815 15.34354512    18

Śledź STARLINK-3160 w czasie rzeczywistym z AllMySat

Download on the App Store